Regional Weather Roundup
Issued by NWS

Home | Current Version | Previous Version | Graphics & Text | Print | Product List | Glossary On
Versions: 1 2 3 4 5 6 7 8 9 10 11 12 13 14 15 16 17 18 19 20 21 22 23 24 25 26 27 28 29 30 31 32 33 34 35 36 37 38 39 40 41 42 43 44 45 46 47 48 49 50
898
ASUS43 KTOP 231208
RWRKS

WEATHER ROUNDUP FOR KANSAS
NATIONAL WEATHER SERVICE GOODLAND KS
700 AM CDT FRI JUN 23 2017

NOTE:  "FAIR" INDICATES FEW OR NO CLOUDS BELOW 12,000 FEET WITH NO
SIGNIFICANT WEATHER AND/OR OBSTRUCTIONS TO VISIBILITY.

KSZ001>006-013>018-027>032-041>047-231300-
NORTHWEST KANSAS

CITY           SKY/WX    TMP DP  RH WIND       PRES   REMARKS
GOODLAND       TSTM      54  51  90 N13G24    30.15R FOG
6HR MIN TEMP:  51; 6HR MAX TEMP:  68; 6HR PCP:  0.63;

HAYS           CLOUDY    66  56  70 N16       29.97R
HILL CITY      LGT RAIN  66  50  56 N17G25    29.95F
6HR MIN TEMP:  65; 6HR MAX TEMP:  73; 6HR PCP: TRACE;

RUSSELL        CLOUDY    67  59  75 N10       29.95R
6HR MIN TEMP:  67; 6HR MAX TEMP:  72; 6HR PCP: TRACE;

$$

KSZ061>065-074>080-084>089-231300-
SOUTHWEST KANSAS

CITY           SKY/WX    TMP DP  RH WIND       PRES   REMARKS
DODGE CITY     PTCLDY    64  61  90 N16       29.98R
6HR MIN TEMP:  64; 6HR MAX TEMP:  72;

ELKHART          N/A     63  52  67 N9          N/A
GARDEN CITY    MOCLDY    63  59  87 N16G25    30.00R
6HR MIN TEMP:  63; 6HR MAX TEMP:  69;

GREAT BEND     CLOUDY    67  63  87 N10       29.93R
LIBERAL        PTCLDY    66  62  87 NE17      29.96R
PRATT          CLOUDY    67  61  79 N13       29.89R
6HR MIN TEMP:  66; 6HR MAX TEMP:  81;

$$

KSZ066>073-081>083-090>101-231300-
SOUTHEAST KANSAS

CITY           SKY/WX    TMP DP  RH WIND       PRES   REMARKS
CHANUTE        CLEAR     74  72  93 SW3       29.73R
6HR MIN TEMP:  71; 6HR MAX TEMP:  74;

COFFEYVILLE    CLEAR     73  73 100 SW6       29.71R
6HR MIN TEMP:  71; 6HR MAX TEMP:  74;

HUTCHINSON     MOCLDY    73  63  70 N16G23    29.85R
6HR MIN TEMP:  72; 6HR MAX TEMP:  82;

MEDICINE LODGE   N/A     71  63  75 N15       29.85R
NEWTON         CLOUDY    72  67  84 N17       29.84R
PARSONS        CLEAR     73  71  93 CALM      29.73R
6HR MIN TEMP:  69; 6HR MAX TEMP:  73;

WICHITA INTL   PTCLDY    73  67  81 N16G25    29.81R
6HR MIN TEMP:  72; 6HR MAX TEMP:  79;

WICHITA JABRA  MOCLDY    73  67  81 NW15      29.82R
6HR MIN TEMP:  72; 6HR MAX TEMP:  79;

WICHITA MCCONL CLEAR     73  65  76 N18G24    29.81R
WINFIELD       CLEAR     73  67  81 NW8       29.79R
6HR MIN TEMP:  71; 6HR MAX TEMP:  75;

$$

KSZ007>012-019>026-033>040-048>060-102>105-231300-
NORTHEAST KANSAS

CITY           SKY/WX    TMP DP  RH WIND       PRES   REMARKS
CONCORDIA      PTCLDY    68  57  68 N13G21    29.91R
6HR MIN TEMP:  67; 6HR MAX TEMP:  75;

EMPORIA        CLOUDY    73  68  84 NE20G25   29.79R
6HR MIN TEMP:  71; 6HR MAX TEMP:  76;

LAWRENCE       CLOUDY    74  65  73 N10G17    29.78R
6HR MIN TEMP:  74; 6HR MAX TEMP:  77;

MANHATTAN      CLOUDY    72  57  59 N8        29.85R
6HR MIN TEMP:  72; 6HR MAX TEMP:  80;

MARYSVILLE     CLOUDY    66  61  82 N9        29.90R
OLATHE IND     CLOUDY    74  65  73 N14       29.78R
6HR MIN TEMP:  72; 6HR MAX TEMP:  76;

OLATHE EXE     CLOUDY    74  65  73 NE15G21   29.77R
6HR MIN TEMP:  72; 6HR MAX TEMP:  76;

SALINA         CLOUDY    74  60  61 N15       29.88R
6HR MIN TEMP:  74; 6HR MAX TEMP:  83;

TOPEKA BILLARD CLOUDY    73  64  73 NE12G23   29.79R
6HR MIN TEMP:  73; 6HR MAX TEMP:  78;

TOPEKA FORBES  CLOUDY    75  63  66 NE15G21   29.80R
6HR MIN TEMP:  74; 6HR MAX TEMP:  78; 6HR PCP:  0.04;

$$




USA.gov is the U.S. government's official web portal to all federal, state and local government web resources and services.